This is the latest recevied weather packets stored in our database for station/object AI4QX-5. If no packets are shown the sender has not sent any weather packets the latest 10 day(s).
| Time | Temp. | Humidity | Pressure | Rain* | Wind** | Luminosity | Snow |
|---|---|---|---|---|---|---|---|
| 1777391400 | 27.78° C | 48% | 1018.7 hPa | 0 mm | - | - | - |
| 1777390800 | 27.78° C | 47% | 1018.6 hPa | 0 mm | - | - | - |
| 1777390200 | 27.78° C | 46% | 1018.6 hPa | 0 mm | - | - | - |
| 1777389600 | 27.22° C | 49% | 1018.6 hPa | 0 mm | - | - | - |
| 1777389001 | 27.22° C | 48% | 1018.5 hPa | 0 mm | - | - | - |
| 1777388400 | 27.22° C | 50% | 1018.4 hPa | 0 mm | - | - | - |
| 1777387800 | 26.67° C | 49% | 1018.4 hPa | 0 mm | - | - | - |
| 1777387200 | 26.67° C | 52% | 1018.3 hPa | 0 mm | - | - | - |
| 1777386600 | 26.67° C | 52% | 1018.2 hPa | 0 mm | - | - | - |
| 1777386000 | 26.11° C | 54% | 1018.1 hPa | 0 mm | - | - | - |
| 1777385400 | 26.11° C | 55% | 1018 hPa | 0 mm | - | - | - |
| 1777384800 | 25.56° C | 48% | 1018 hPa | 0 mm | - | - | - |
| 1777384200 | 25.56° C | 48% | 1017.8 hPa | 0 mm | - | - | - |
| 1777383600 | 25.56° C | 47% | 1017.8 hPa | 0 mm | - | - | - |
| 1777383000 | 25.56° C | 46% | 1017.8 hPa | 0 mm | - | - | - |
| 1777382400 | 25° C | 46% | 1017.6 hPa | 0 mm | - | - | - |
| 1777381800 | 25° C | 47% | 1017.6 hPa | 0 mm | - | - | - |
| 1777381200 | 25° C | 47% | 1017.5 hPa | 0 mm | - | - | - |
| 1777380601 | 25° C | 47% | 1017.5 hPa | 0 mm | - | - | - |
| 1777380000 | 24.44° C | 47% | 1017.5 hPa | 0 mm | - | - | - |
| 1777379400 | 24.44° C | 47% | 1017.4 hPa | 0 mm | - | - | - |
| 1777378800 | 24.44° C | 47% | 1017.5 hPa | 0 mm | - | - | - |
| 1777378200 | 24.44° C | 47% | 1017.5 hPa | 0 mm | - | - | - |
| 1777377600 | 24.44° C | 47% | 1017.4 hPa | 0 mm | - | - | - |
| 1777377000 | 24.44° C | 47% | 1017.3 hPa | 0 mm | - | - | - |
* Rain latest hour (hover to see other rain measurements)
** Current wind speed in m/s (hover to see current wind gust speed)